Regional Weather Roundup
Issued by NWS Goodland, KS

Home | Current Version | Previous Version | Text Only | Print | Product List | Glossary On
Versions: 1 2 3 4 5 6 7 8 9 10 11 12 13 14 15 16 17 18 19 20 21 22 23 24 25 26 27 28 29 30 31 32 33 34 35 36 37 38 39 40 41 42 43 44 45 46 47 48 49 50
000
ASUS43 KGLD 281208
RWRGLD

GOODLAND FORECAST AREA HOURLY WEATHER ROUNDUP
NATIONAL WEATHER SERVICE GOODLAND KS
600 AM MDT THU JUL 28 2016

...OFFICIAL OBSERVATIONS...

CITY           SKY/WX    TMP DP  RH WIND       PRES   REMARKS
GOODLAND KS    MOCLDY    68  52  56 SE17      30.09F
HILL CITY KS   CLOUDY    68  67  96 S3        30.06F FOG
IMPERIAL NEB   CLOUDY    63  61  93 CALM      30.11R
MCCOOK NEB     MOCLDY    66  64  93 E10       30.07S FOG
AKRON CO       CLEAR     60  55  83 S15       30.14F
BURLINGTON CO  CLOUDY    63  54  72 SE14      30.15F
LIMON CO       CLEAR     57  55  93 SE9       30.23R
$$

...UNOFFICIAL OBSERVATIONS...

CITY           SKY/WX    TMP DP  RH WIND       PRES   REMARKS
COLBY KS       CLEAR     66  61  82 SW13      30.06R
LENORA KS        N/A     69  32  25 MISG        N/A
NORTON KS      PTCLDY    68  64  88 NE6       30.07S
KIT CARSON CO    N/A     61  55  81 MISG        N/A
YUMA CO          N/A     59  55  88 SW6         N/A
$$




USA.gov is the U.S. government's official web portal to all federal, state and local government web resources and services.